Meteo Giornale » Osservazioni meteo Stati Uniti (USA) » Watsonville
ore: 19:53 - Osservazioni Meteo Watsonville
Lat. 36° 56' N Lon. 121° 47' W Alt. 49 metri s.l.m.
15 °C
Poco Nuvoloso
Temp. 24 Ore
13 °C
19 °C
Sud/Sud-Ovest
9.3 Km/h
Dew point 12 °C
Umidità 82 %
Visibilità 10 Km
Il sole sorge alle ore 06:37
Il sole tramonta alle ore 19:37
| Data e Ora | Cielo e Fenomeni | T °C | DP °C | Um. % | Pres. hPa | Vis. km | Vento km/h | |
|---|---|---|---|---|---|---|---|---|
| Oggi h: 19:53 | Poco Nuvoloso | 15 | 12 | 82 | 1014 | 10 | S/SO 9.3 | |
| Oggi h: 19:35 | Nuvoloso | 15 | 13 | 87 | 1014 | 10 | S/SO 9.3 | |
| Oggi h: 18:53 | Coperto | 16 | 13 | 82 | 1014 | 10 | SO 13 | |
| Oggi h: 18:08 | Molto Nuvoloso | 17 | 13 | 77 | 1014 | 10 | O/SO 18.5 | |
| Oggi h: 17:53 | Nuvoloso | 17 | 13 | 77 | 1014 | 10 | O/SO 16.7 | |
| Oggi h: 16:53 | Sereno | 18 | 13 | 72 | 1014 | 10 | O 18.5 | |
| Oggi h: 15:53 | Sereno | 19 | 12 | 63 | 1014 | 10 | O/SO 16.7 | |
| Oggi h: 14:53 | Poco Nuvoloso | 19 | 12 | 63 | 1015 | 10 | O/SO 20.3 | |
| Oggi h: 14:40 | Nuvoloso | 19 | 12 | 63 | 1015 | 10 | SO 18.5 | |
| Oggi h: 13:53 | Coperto | 19 | 12 | 63 | 1015 | 10 | O/SO 20.3 | |
| Oggi h: 12:53 | Coperto | 18 | 12 | 67 | 1015 | 10 | S/SO 13 | |
| Oggi h: 11:53 | Coperto | 18 | 11 | 63 | 1016 | 10 | N 5.5 | |
| Oggi h: 10:53 | Coperto | 17 | 11 | 67 | 1016 | 10 | N 0 | |
| Oggi h: 09:53 | Coperto | 16 | 11 | 72 | 1015 | 10 | N 5.5 | |
| Oggi h: 09:34 | Coperto | 14 | 11 | 82 | 1015 | 10 | N 0 | |
| Oggi h: 09:22 | Coperto | 14 | 12 | 87 | 1015 | 10 | N 5.5 | |
| Oggi h: 08:53 | Coperto | 14 | 11 | 82 | 1015 | 10 | O/NO 7.4 | |
| Oggi h: 08:39 | Coperto | 14 | 12 | 87 | 1015 | 10 | N 0 | |
| Oggi h: 08:30 | Coperto | 14 | 12 | 87 | 1015 | 10 | O/NO 7.4 | |
| Oggi h: 07:53 | Coperto | 13 | 12 | 93 | 1015 | 13 | N 0 | |
| Oggi h: 06:53 | Coperto | 13 | 12 | 93 | 1014 | 10 | N 5.5 | |
| Oggi h: 06:48 | Coperto | 13 | 12 | 93 | 1014 | 10 | N 0 | |
| Oggi h: 06:33 | Coperto | 13 | 12 | 93 | 1014 | 10 | N 0 | |
| Oggi h: 05:53 | Foschia | 13 | 12 | 93 | 1014 | 10 | N 5.5 | |
| Oggi h: 04:53 | Coperto | 13 | 12 | 93 | 1014 | 10 | N 0 | |
| Oggi h: 04:06 | Coperto | 13 | 12 | 93 | 1014 | 10 | N 0 | |
| Oggi h: 03:53 | Coperto | 13 | 12 | 93 | 1014 | 13 | N 5.5 | |
| Oggi h: 03:34 | Foschia | 13 | 12 | 93 | 1014 | 10 | N 5.5 | |
| Oggi h: 02:53 | Foschia | 13 | 12 | 93 | 1014 | 10 | N 0 | |
| Oggi h: 01:53 | Coperto | 13 | 12 | 93 | 1014 | 14 | N 0 | |
| Oggi h: 00:53 | Coperto | 14 | 12 | 87 | 1014 | 10 | N 0 | |
| Ieri h: 23:53 | Coperto | 14 | 12 | 87 | 1014 | 10 | N 5.5 | |
| Ieri h: 22:53 | Coperto | 14 | 12 | 87 | 1014 | 10 | N 0 | |
| Ieri h: 21:53 | Coperto | 14 | 12 | 87 | 1014 | 10 | N 5.5 | |
| Ieri h: 20:53 | Coperto | 14 | 12 | 87 | 1014 | 10 | N 0 | |



